AAL3252 KMIA-KSEA

Flight info

Callsign AAL3252
Flight time N/A
Altitude 30000
Route HURCN4 SMELZ Q116 JAWJA MEMFS BUM/N0470F320 DRABS PECKS GCC BIL MLP GLASR3
Aircraft A21N/M-SDE2E3FGHIRWXY/LB1

Departure

Time 2026-05-05 19:54
Airport Miami International Airport (KMIA)

Arrival

Time N/A
Airport Seattle–Tacoma International Airport (KSEA)
Time Latitude Longitude Altitude Speed Heading
2026-05-05 19:30 25.79828 -80.28368 23 ft 0 kts 176°
2026-05-05 19:43 25.79835 -80.28369 27 ft 4 kts 176°
2026-05-05 19:43 25.79861 -80.28369 25 ft 4 kts 198°
2026-05-05 19:44 25.79882 -80.28354 22 ft 4 kts 243°
2026-05-05 19:44 25.79887 -80.28334 22 ft 1 kts 266°
2026-05-05 19:44 25.79887 -80.28330 22 ft 0 kts 266°
2026-05-05 19:49 25.79918 -80.28436 23 ft 13 kts 320°
2026-05-05 19:49 25.79954 -80.28501 24 ft 12 kts 302°
2026-05-05 19:50 25.80022 -80.28581 30 ft 17 kts 283°
2026-05-05 19:50 25.80018 -80.28730 30 ft 23 kts 266°
2026-05-05 19:50 25.80010 -80.28953 27 ft 30 kts 268°
2026-05-05 19:50 25.80001 -80.29156 29 ft 21 kts 268°
2026-05-05 19:51 25.79997 -80.29293 27 ft 12 kts 268°
2026-05-05 19:51 25.79992 -80.29395 26 ft 14 kts 267°
2026-05-05 19:51 25.79986 -80.29514 20 ft 16 kts 268°
2026-05-05 19:51 25.79981 -80.29636 21 ft 15 kts 265°
2026-05-05 19:52 25.79975 -80.29734 21 ft 13 kts 266°
2026-05-05 19:52 25.79971 -80.29811 20 ft 9 kts 269°
2026-05-05 19:52 25.79970 -80.29890 19 ft 11 kts 268°
2026-05-05 19:52 25.79974 -80.29958 18 ft 16 kts 280°
2026-05-05 19:53 25.80043 -80.30068 20 ft 19 kts 357°
2026-05-05 19:53 25.80077 -80.29975 19 ft 16 kts 86°
2026-05-05 19:53 25.80079 -80.29948 19 ft 18 kts 86°
2026-05-05 19:53 25.80095 -80.29583 21 ft 75 kts 87°
2026-05-05 19:54 25.80128 -80.28785 28 ft 133 kts 88°
2026-05-05 19:54 25.80174 -80.27579 88 ft 172 kts 85°
2026-05-05 19:54 25.80224 -80.26210 454 ft 180 kts 86°
2026-05-05 19:54 25.80308 -80.24842 1034 ft 175 kts 84°
2026-05-05 19:55 25.80399 -80.23462 1422 ft 188 kts 84°
2026-05-05 19:55 25.80484 -80.21927 1644 ft 211 kts 85°
2026-05-05 19:55 25.80569 -80.20209 1937 ft 237 kts 82°
2026-05-05 19:55 25.81041 -80.18376 2660 ft 257 kts 58°
2026-05-05 19:56 25.82254 -80.16863 3371 ft 272 kts 27°
2026-05-05 19:56 25.84078 -80.16306 4592 ft 273 kts
2026-05-05 19:56 25.85971 -80.16178 5597 ft 271 kts 360°
2026-05-05 19:56 25.87860 -80.16054 6417 ft 274 kts
2026-05-05 19:57 25.89766 -80.16112 7132 ft 275 kts 346°
2026-05-05 19:57 25.91630 -80.16610 7874 ft 277 kts 340°
2026-05-05 19:57 25.93496 -80.17228 8535 ft 282 kts 339°
2026-05-05 19:57 25.95374 -80.17877 9238 ft 284 kts 338°
2026-05-05 19:58 25.97212 -80.18663 9914 ft 284 kts 327°
2026-05-05 19:58 25.98791 -80.19986 10350 ft 289 kts 308°
2026-05-05 19:58 25.99879 -80.21907 10602 ft 302 kts 292°
2026-05-05 19:58 26.00704 -80.24119 10835 ft 318 kts 289°
2026-05-05 19:59 26.01518 -80.26465 11026 ft 333 kts 289°
2026-05-05 19:59 26.02364 -80.28878 11309 ft 346 kts 290°
2026-05-05 19:59 26.03263 -80.31409 11517 ft 358 kts 290°
2026-05-05 19:59 26.04196 -80.34016 11789 ft 367 kts 290°
2026-05-05 20:00 26.05150 -80.36671 12214 ft 371 kts 290°
2026-05-05 20:00 26.06112 -80.39340 12617 ft 373 kts 290°
2026-05-05 20:00 26.07081 -80.42024 13028 ft 375 kts 291°
2026-05-05 20:00 26.08053 -80.44721 13412 ft 377 kts 291°
2026-05-05 20:01 26.09029 -80.47433 13797 ft 378 kts 291°
2026-05-05 20:01 26.10007 -80.50152 14108 ft 380 kts 291°
2026-05-05 20:01 26.10992 -80.52893 14412 ft 382 kts 291°
2026-05-05 20:01 26.12071 -80.55602 14737 ft 384 kts 297°
2026-05-05 20:02 26.13586 -80.58048 15111 ft 386 kts 310°
2026-05-05 20:02 26.15610 -80.60026 15525 ft 391 kts 323°
2026-05-05 20:02 26.18021 -80.61461 15922 ft 395 kts 332°
2026-05-05 20:02 26.20547 -80.62682 16244 ft 396 kts 334°
2026-05-05 20:03 26.23096 -80.63878 16526 ft 398 kts 334°
2026-05-05 20:03 26.25651 -80.65081 16804 ft 399 kts 334°
2026-05-05 20:03 26.28210 -80.66294 17091 ft 400 kts 334°
2026-05-05 20:03 26.30772 -80.67514 17368 ft 401 kts 334°
2026-05-05 20:04 26.33342 -80.68743 17638 ft 402 kts 334°
2026-05-05 20:04 26.35917 -80.69978 17878 ft 403 kts 333°
2026-05-05 20:04 26.38454 -80.71301 18087 ft 403 kts 328°
2026-05-05 20:04 26.40791 -80.73009 18280 ft 401 kts 319°
2026-05-05 20:05 26.42832 -80.75135 18432 ft 401 kts 312°
2026-05-05 20:05 26.44741 -80.77411 18572 ft 402 kts 311°
2026-05-05 20:05 26.46632 -80.79714 18720 ft 403 kts 311°
2026-05-05 20:05 26.48526 -80.82023 18853 ft 404 kts 311°
2026-05-05 20:06 26.50423 -80.84329 18981 ft 404 kts 311°
2026-05-05 20:06 26.52329 -80.86642 19101 ft 405 kts 311°
2026-05-05 20:06 26.54234 -80.88953 19213 ft 405 kts 311°
2026-05-05 20:06 26.56145 -80.91270 19309 ft 406 kts 311°
2026-05-05 20:07 26.58058 -80.93589 19395 ft 406 kts 311°
2026-05-05 20:07 26.59974 -80.95913 19504 ft 407 kts 311°
2026-05-05 20:07 26.61890 -80.98238 19609 ft 407 kts 311°
2026-05-05 20:07 26.63808 -81.00568 19687 ft 407 kts 311°
2026-05-05 20:08 26.65726 -81.02898 19760 ft 408 kts 311°
2026-05-05 20:08 26.67647 -81.05232 19831 ft 408 kts 311°
2026-05-05 20:08 26.69566 -81.07566 19899 ft 408 kts 311°
2026-05-05 20:08 26.71490 -81.09908 19968 ft 409 kts 311°
2026-05-05 20:09 26.73414 -81.12250 20031 ft 409 kts 311°
2026-05-05 20:09 26.75338 -81.14593 20095 ft 409 kts 311°
2026-05-05 20:09 26.77264 -81.16939 20160 ft 410 kts 311°
2026-05-05 20:09 26.79192 -81.19291 20223 ft 410 kts 311°
2026-05-05 20:10 26.81120 -81.21642 20291 ft 410 kts 311°
2026-05-05 20:10 26.83049 -81.23997 20358 ft 411 kts 311°
2026-05-05 20:10 26.84980 -81.26356 20430 ft 411 kts 310°
2026-05-05 20:10 26.86914 -81.28719 20505 ft 411 kts 310°
2026-05-05 20:11 26.88848 -81.31083 20578 ft 412 kts 310°
2026-05-05 20:11 26.90759 -81.33422 20672 ft 412 kts 310°
2026-05-05 20:11 26.92696 -81.35792 20765 ft 412 kts 310°
2026-05-05 20:11 26.94633 -81.38163 20867 ft 413 kts 310°
2026-05-05 20:12 26.96596 -81.40569 20966 ft 413 kts 310°
2026-05-05 20:12 26.98539 -81.42951 21070 ft 414 kts 310°
2026-05-05 20:12 27.00457 -81.45305 21174 ft 414 kts 310°
2026-05-05 20:12 27.02403 -81.47693 21295 ft 415 kts 310°
2026-05-05 20:13 27.04414 -81.50016 21408 ft 417 kts 315°
2026-05-05 20:13 27.06680 -81.52060 21514 ft 420 kts 322°
2026-05-05 20:13 27.09111 -81.53882 21653 ft 421 kts 324°
2026-05-05 20:13 27.11576 -81.55657 21785 ft 421 kts 324°
2026-05-05 20:14 27.14049 -81.57430 21906 ft 422 kts 324°
2026-05-05 20:14 27.16525 -81.59210 22024 ft 423 kts 324°
2026-05-05 20:14 27.18986 -81.60982 22158 ft 424 kts 324°
2026-05-05 20:14 27.21470 -81.62774 22295 ft 424 kts 324°
2026-05-05 20:15 27.23954 -81.64568 22464 ft 425 kts 324°
2026-05-05 20:15 27.26441 -81.66366 22622 ft 425 kts 324°
2026-05-05 20:15 27.28927 -81.68165 22777 ft 426 kts 324°
2026-05-05 20:15 27.31420 -81.69970 22917 ft 427 kts 324°
2026-05-05 20:16 27.33919 -81.71780 23063 ft 428 kts 323°
2026-05-05 20:16 27.36423 -81.73595 23217 ft 428 kts 323°
2026-05-05 20:16 27.38929 -81.75412 23364 ft 429 kts 323°
2026-05-05 20:16 27.41440 -81.77234 23509 ft 430 kts 323°
2026-05-05 20:17 27.43959 -81.79060 23634 ft 431 kts 324°
2026-05-05 20:17 27.46574 -81.80738 23763 ft 435 kts 329°
2026-05-05 20:17 27.49327 -81.82167 23897 ft 436 kts 332°
2026-05-05 20:17 27.52115 -81.83530 24046 ft 437 kts 332°
2026-05-05 20:18 27.54909 -81.84884 24173 ft 438 kts 332°
2026-05-05 20:18 27.57707 -81.86241 24314 ft 438 kts 332°
2026-05-05 20:18 27.60510 -81.87604 24458 ft 439 kts 332°
2026-05-05 20:18 27.63311 -81.88969 24606 ft 439 kts 332°
2026-05-05 20:19 27.66119 -81.90338 24757 ft 440 kts 332°
2026-05-05 20:19 27.68937 -81.91714 24904 ft 441 kts 332°
2026-05-05 20:19 27.71751 -81.93089 25058 ft 442 kts 332°
2026-05-05 20:19 27.74567 -81.94465 25294 ft 441 kts 332°
2026-05-05 20:20 27.77373 -81.95837 25591 ft 439 kts 332°
2026-05-05 20:20 27.80168 -81.97205 25911 ft 437 kts 332°
2026-05-05 20:20 27.82954 -81.98570 26228 ft 436 kts 332°
2026-05-05 20:20 27.85728 -81.99930 26622 ft 433 kts 332°
2026-05-05 20:21 27.88480 -82.01279 27022 ft 430 kts 332°
2026-05-05 20:21 27.91179 -82.02605 27355 ft 428 kts 332°
2026-05-05 20:21 27.93940 -82.03961 27670 ft 427 kts 332°
2026-05-05 20:21 27.96657 -82.05297 27980 ft 425 kts 332°
2026-05-05 20:22 27.99366 -82.06629 28285 ft 424 kts 332°
2026-05-05 20:22 28.02068 -82.07958 28591 ft 423 kts 332°
2026-05-05 20:22 28.04726 -82.09266 28879 ft 421 kts 332°
2026-05-05 20:22 28.07383 -82.10639 29203 ft 418 kts 328°
2026-05-05 20:23 28.09876 -82.12300 29509 ft 414 kts 323°
2026-05-05 20:23 28.12261 -82.14112 29809 ft 412 kts 322°
2026-05-05 20:23 28.14605 -82.15986 30017 ft 412 kts 321°
2026-05-05 20:24 28.19241 -82.19771 30020 ft 410 kts 321°
2026-05-05 20:24 28.23877 -82.23532 30017 ft 410 kts 321°
2026-05-05 20:25 28.28559 -82.27291 30015 ft 410 kts 321°
2026-05-05 20:25 28.33187 -82.30994 30014 ft 410 kts 321°
2026-05-05 20:26 28.37846 -82.34724 30020 ft 410 kts 321°
2026-05-05 20:26 28.42501 -82.38456 30018 ft 410 kts 321°
2026-05-05 20:27 28.47152 -82.42191 30023 ft 408 kts 321°
2026-05-05 20:27 28.51782 -82.45912 30017 ft 407 kts 321°
2026-05-05 20:28 28.56402 -82.49630 30018 ft 407 kts 321°
2026-05-05 20:28 28.61018 -82.53350 30014 ft 407 kts 321°
2026-05-05 20:29 28.65633 -82.57073 30012 ft 406 kts 321°
2026-05-05 20:29 28.70246 -82.60797 30012 ft 407 kts 321°
2026-05-05 20:30 28.74859 -82.64527 30014 ft 407 kts 321°
2026-05-05 20:30 28.79465 -82.68254 30015 ft 406 kts 321°
2026-05-05 20:31 28.84070 -82.71984 30018 ft 406 kts 321°
2026-05-05 20:31 28.88671 -82.75717 30015 ft 406 kts 321°
2026-05-05 20:32 28.93268 -82.79449 30012 ft 405 kts 321°
2026-05-05 20:32 28.97854 -82.83176 30015 ft 404 kts 321°
2026-05-05 20:33 29.02434 -82.86903 30010 ft 404 kts 321°
2026-05-05 20:33 29.07008 -82.90630 30027 ft 404 kts 321°
2026-05-05 20:34 29.11580 -82.94359 30010 ft 404 kts 321°
2026-05-05 20:34 29.16152 -82.98092 30009 ft 404 kts 321°
2026-05-05 20:35 29.20723 -83.01828 30016 ft 404 kts 321°
2026-05-05 20:35 29.25288 -83.05564 30008 ft 404 kts 321°
2026-05-05 20:36 29.29861 -83.09311 30013 ft 404 kts 321°
2026-05-05 20:36 29.34427 -83.13056 30009 ft 404 kts 321°
2026-05-05 20:37 29.38965 -83.16781 30008 ft 403 kts 321°
2026-05-05 20:37 29.43517 -83.20523 30017 ft 402 kts 321°
2026-05-05 20:38 29.48066 -83.24267 30014 ft 402 kts 321°
2026-05-05 20:38 29.52612 -83.28013 30014 ft 402 kts 321°
2026-05-05 20:39 29.57153 -83.31759 30015 ft 402 kts 321°
2026-05-05 20:39 29.61699 -83.35513 30023 ft 402 kts 321°
2026-05-05 20:40 29.66240 -83.39267 30018 ft 402 kts 321°
2026-05-05 20:40 29.70014 -83.42390 30017 ft 403 kts 321°
2026-05-05 20:41 29.74563 -83.46158 30051 ft 403 kts 321°
2026-05-05 20:41 29.79109 -83.49928 30056 ft 403 kts 321°
2026-05-05 20:42 29.83654 -83.53703 30046 ft 403 kts 321°
2026-05-05 20:42 29.88187 -83.57469 30060 ft 401 kts 321°
2026-05-05 20:43 29.92704 -83.61225 30061 ft 400 kts 321°
2026-05-05 20:43 29.97220 -83.64986 30070 ft 400 kts 321°
2026-05-05 20:44 30.01732 -83.68746 30066 ft 400 kts 321°
2026-05-05 20:44 30.06246 -83.72512 30062 ft 400 kts 321°
2026-05-05 20:45 30.13006 -83.78162 30057 ft 400 kts 321°
2026-05-05 20:45 30.17412 -83.82068 30056 ft 398 kts 315°
2026-05-05 20:46 30.21360 -83.86487 30051 ft 398 kts 313°
2026-05-05 20:46 30.25275 -83.91074 30049 ft 398 kts 313°
2026-05-05 20:47 30.29135 -83.95643 30053 ft 396 kts 313°
2026-05-05 20:47 30.32988 -84.00196 30056 ft 396 kts 313°
2026-05-05 20:48 30.36845 -84.04748 30056 ft 396 kts 313°
2026-05-05 20:48 30.40700 -84.09299 30060 ft 396 kts 313°
2026-05-05 20:49 30.44553 -84.13852 30061 ft 396 kts 313°
2026-05-05 20:49 30.48403 -84.18407 30060 ft 396 kts 313°
2026-05-05 20:50 30.52252 -84.22967 30060 ft 395 kts 313°
2026-05-05 20:50 30.56098 -84.27530 30058 ft 395 kts 313°
2026-05-05 20:51 30.59938 -84.32091 30058 ft 394 kts 312°
2026-05-05 20:51 30.63769 -84.36646 30051 ft 394 kts 312°
2026-05-05 20:52 30.67593 -84.41198 30044 ft 394 kts 312°
2026-05-05 20:52 30.71389 -84.45721 30044 ft 394 kts 312°
2026-05-05 20:53 30.75211 -84.50284 30041 ft 394 kts 312°
2026-05-05 20:53 30.79029 -84.54845 30037 ft 394 kts 312°
2026-05-05 20:54 30.82844 -84.59409 30038 ft 393 kts 312°
2026-05-05 20:54 30.86659 -84.63979 30041 ft 393 kts 312°
2026-05-05 20:55 30.90466 -84.68544 30039 ft 392 kts 312°
2026-05-05 20:55 30.94261 -84.73099 30032 ft 391 kts 312°
2026-05-05 20:56 30.98045 -84.77649 30034 ft 391 kts 312°
2026-05-05 20:56 31.01828 -84.82203 30036 ft 391 kts 312°
2026-05-05 20:57 31.05611 -84.86762 30032 ft 391 kts 312°
2026-05-05 20:57 31.09389 -84.91320 30037 ft 391 kts 312°
2026-05-05 20:58 31.13167 -84.95884 30036 ft 391 kts 312°
2026-05-05 20:58 31.16942 -85.00449 30038 ft 391 kts 312°
2026-05-05 20:59 31.20713 -85.05016 30032 ft 390 kts 311°
2026-05-05 20:59 31.24473 -85.09571 30040 ft 388 kts 311°
2026-05-05 21:00 31.28217 -85.14118 30046 ft 388 kts 311°
2026-05-05 21:00 31.31933 -85.18636 30046 ft 388 kts 311°
2026-05-05 21:01 31.35674 -85.23189 30050 ft 388 kts 311°
2026-05-05 21:01 31.39414 -85.27746 30045 ft 388 kts 311°
2026-05-05 21:02 31.43151 -85.32304 30053 ft 388 kts 311°
2026-05-05 21:02 31.46894 -85.36875 30051 ft 389 kts 311°
2026-05-05 21:03 31.50464 -85.41241 30050 ft 389 kts 311°
2026-05-05 21:03 31.54202 -85.45816 30034 ft 387 kts 311°
2026-05-05 21:04 31.57919 -85.50372 30030 ft 386 kts 311°
2026-05-05 21:04 31.61630 -85.54928 30023 ft 386 kts 311°
2026-05-05 21:05 31.65342 -85.59490 30011 ft 386 kts 311°
2026-05-05 21:05 31.69052 -85.64056 30018 ft 386 kts 311°
2026-05-05 21:06 31.72764 -85.68629 30045 ft 387 kts 311°
2026-05-05 21:06 31.76475 -85.73204 30012 ft 387 kts 311°
2026-05-05 21:07 31.80183 -85.77784 30023 ft 387 kts 311°
2026-05-05 21:07 31.83870 -85.82341 30021 ft 387 kts 311°
2026-05-05 21:08 31.87575 -85.86928 30016 ft 387 kts 311°
2026-05-05 21:08 31.91277 -85.91516 30016 ft 387 kts 311°
2026-05-05 21:09 31.94985 -85.96117 30016 ft 387 kts 311°
2026-05-05 21:09 31.98584 -86.00590 30016 ft 387 kts 311°
2026-05-05 21:10 32.02315 -86.05230 30027 ft 387 kts 311°
2026-05-05 21:10 32.06013 -86.09839 30015 ft 387 kts 311°
2026-05-05 21:11 32.09709 -86.14450 30013 ft 387 kts 311°
2026-05-05 21:11 32.13401 -86.19060 30001 ft 386 kts 310°
2026-05-05 21:12 32.17085 -86.23665 29998 ft 385 kts 310°
2026-05-05 21:12 32.20758 -86.28256 29991 ft 384 kts 310°
2026-05-05 21:13 32.24425 -86.32842 29990 ft 385 kts 310°
2026-05-05 21:13 32.28099 -86.37447 29989 ft 385 kts 310°
2026-05-05 21:14 32.31761 -86.42050 29990 ft 384 kts 310°
2026-05-05 21:14 32.35391 -86.46618 29962 ft 384 kts 310°
2026-05-05 21:15 32.38394 -86.50402 29963 ft 384 kts 310°
2026-05-05 21:15 32.38401 -86.50410 29963 ft 384 kts 310°